Effective Sunday, March 17, 2024, the National Weather Service National Data Buoy Center will discontinue its Dial-A-Buoy Interactive Voice Response system. For more information, see Service Change Notice 24-06 (PDF).

Station OBGN6 - 8311030 - Ogdensburg, NY Image indicating link to RSS feed of recent meteorological observations for station OBGN6


Conditions at OBGN6 as of
(10:30 pm EST on 02/24/2024)
0330 GMT on 02/25/2024:
     

Click on the graph icon in the table below to see a time series plot of the last five days of that observation.

5-day plot - Atmospheric Pressure Atmospheric Pressure (PRES):30.03 in
5-day plot - Air Temperature Air Temperature (ATMP): 12.4 °F
NOS Water Level Observation Network Water Level
Previous observations
TIME
(EST)
5-day plot - Wind Direction
WDIR
 
5-day plot - Wind Speed
WSPD
kts
5-day plot - Wind Gust
GST
kts
5-day plot - Wave Height
WVHT
ft
5-day plot - Dominant Wave Period
DPD
sec
5-day plot - Average Wave Period
APD
sec
5-day plot - Mean Wave Direction
MWD
 
5-day plot - Atmospheric Pressure
PRES
in
5-day plot - Pressure Tendency
PTDY
in
5-day plot - Air Temperature
ATMP
°F
5-day plot - Water Temperature
WTMP
°F
5-day plot - Dew Point
DEWP
°F
5-day plot - Salinity
SAL
psu
5-day plot - Visibility
VIS
nmi
5-day plot - Tide (above MLLW)
TIDE
ft
2024-02-24 10:24 pm-------30.03- 12.2-----
2024-02-24 10:18 pm--------- 12.4-----
2024-02-24 10:12 pm--------- 12.6-----
2024-02-24 10:06 pm--------- 12.6-----
2024-02-24 10:00 pm-------30.03+0.02 12.6-----
2024-02-24 09:54 pm-------30.03- 12.7-----
2024-02-24 09:48 pm-------30.03- 12.7-----
2024-02-24 09:42 pm-------30.03- 12.6-----
2024-02-24 09:36 pm-------30.03- 12.7-----
2024-02-24 09:30 pm-------30.03- 12.9-----
2024-02-24 09:24 pm-------30.03- 13.1-----
2024-02-24 09:18 pm-------30.03-------
2024-02-24 09:12 pm-------30.02-------
2024-02-24 09:06 pm-------30.02-------
2024-02-24 09:00 pm-------30.02+0.02------
2024-02-24 08:54 pm-------30.02-------
2024-02-24 08:48 pm-------30.02-------
2024-02-24 08:42 pm-------30.02-------
2024-02-24 08:36 pm-------30.02-------
2024-02-24 08:30 pm-------30.02- 14.5-----
2024-02-24 08:24 pm-------30.01- 14.4-----
2024-02-24 08:18 pm-------30.01- 14.2-----
2024-02-24 08:12 pm-------30.01- 14.2-----
2024-02-24 08:06 pm-------30.01- 14.0-----
2024-02-24 08:00 pm-------30.01+0.04------
2024-02-24 07:54 pm-------30.02-------
2024-02-24 07:48 pm-------30.01-------
2024-02-24 07:42 pm-------30.01-------
2024-02-24 07:36 pm-------30.01-------
2024-02-24 07:30 pm-------30.01-------
2024-02-24 07:24 pm-------30.01-------
2024-02-24 07:18 pm-------30.01- 14.4-----
2024-02-24 07:12 pm-------30.01- 14.4-----
2024-02-24 07:06 pm-------30.01- 14.5-----
2024-02-24 07:00 pm-------30.01+0.04 14.5-----
2024-02-24 06:54 pm-------30.01- 14.5-----
2024-02-24 06:48 pm-------30.01- 14.7-----
2024-02-24 06:42 pm-------30.01- 14.7-----
2024-02-24 06:36 pm-------30.01- 14.9-----
2024-02-24 06:30 pm-------30.01-------
2024-02-24 06:24 pm-------30.01-------
2024-02-24 06:18 pm-------30.01- 15.1-----
2024-02-24 06:12 pm-------30.00- 15.3-----
2024-02-24 06:06 pm-------30.00- 15.3-----
2024-02-24 06:00 pm-------30.00+0.05 15.4-----
2024-02-24 05:54 pm-------30.00- 15.4-----
2024-02-24 05:48 pm-------29.99- 15.4-----
2024-02-24 05:42 pm-------29.99- 15.4-----
2024-02-24 05:36 pm-------29.99- 15.8-----
2024-02-24 05:30 pm-------29.99- 15.8-----
2024-02-24 05:24 pm-------29.99- 16.3-----
2024-02-24 05:18 pm-------29.98-------
2024-02-24 05:12 pm-------29.98-------
2024-02-24 05:06 pm-------29.98-------
2024-02-24 05:00 pm-------29.98+0.04------
2024-02-24 04:54 pm-------29.98-------
2024-02-24 04:48 pm-------29.98- 16.7-----
2024-02-24 04:42 pm-------29.97- 17.1-----
2024-02-24 04:36 pm-------29.97- 16.9-----
2024-02-24 04:30 pm-------29.97- 17.1-----
2024-02-24 04:24 pm-------29.97- 16.7-----
2024-02-24 04:18 pm-------29.97- 16.7-----
2024-02-24 04:12 pm-------29.97- 16.9-----
2024-02-24 04:06 pm-------29.97- 16.7-----
2024-02-24 04:00 pm-------29.97+0.03 16.9-----
2024-02-24 03:54 pm-------29.97- 16.9-----
2024-02-24 03:48 pm-------29.96-------
2024-02-24 03:42 pm-------29.96-------
2024-02-24 03:36 pm-------29.96-------
2024-02-24 03:30 pm--------- 16.3-----
2024-02-24 03:24 pm--------- 16.5-----
2024-02-24 03:18 pm-------29.96- 16.9-----
2024-02-24 03:12 pm-------29.96- 16.3-----
2024-02-24 03:06 pm-------29.95- 16.5-----
2024-02-24 03:00 pm-------29.95+0.00 16.9-----
2024-02-24 02:54 pm-------29.95- 16.2-----
2024-02-24 02:48 pm-------29.95- 16.7-----
2024-02-24 02:42 pm-------29.95- 16.3-----
2024-02-24 02:36 pm-------29.95- 15.6-----
2024-02-24 02:30 pm-------29.95- 15.8-----
2024-02-24 02:24 pm-------29.94- 16.2-----
2024-02-24 02:18 pm-------29.94- 15.3-----
2024-02-24 02:12 pm-------29.94- 15.4-----
2024-02-24 02:06 pm-------29.94- 14.9-----
2024-02-24 02:00 pm-------29.94-0.01------
2024-02-24 01:54 pm-------29.94-------
2024-02-24 01:48 pm-------29.94- 14.9-----
2024-02-24 01:42 pm-------29.94- 14.5-----
2024-02-24 01:36 pm-------29.94- 14.7-----
2024-02-24 01:30 pm-------29.94- 13.8-----
2024-02-24 01:24 pm-------29.94- 14.5-----
2024-02-24 01:18 pm-------29.94- 13.8-----
2024-02-24 01:12 pm-------29.94- 13.3-----
2024-02-24 01:06 pm-------29.94- 13.3-----
2024-02-24 01:00 pm-------29.94-0.01------
2024-02-24 12:54 pm-------29.94-------
2024-02-24 12:48 pm-------29.95-------
2024-02-24 12:42 pm-------29.95-------
2024-02-24 12:36 pm-------29.95-------
2024-02-24 12:30 pm-------29.95- 12.6-----
2024-02-24 12:24 pm-------29.95- 12.2-----
2024-02-24 12:18 pm-------29.95- 13.1-----
2024-02-24 12:12 pm-------29.95- 12.0-----
2024-02-24 12:06 pm-------29.95- 12.0-----
2024-02-24 12:00 pm-------29.95+0.00 12.0-----
2024-02-24 11:54 am-------29.95- 11.5-----
2024-02-24 11:48 am-------29.95-------
2024-02-24 11:42 am-------29.95-------
2024-02-24 11:36 am-------29.96-------
2024-02-24 11:30 am-------29.95-------
2024-02-24 11:24 am-------29.96-------
2024-02-24 11:18 am--------- 10.0-----
2024-02-24 11:12 am--------- 9.9-----
2024-02-24 11:06 am--------- 10.0-----
2024-02-24 11:00 am-------29.95-------
2024-02-24 10:54 am-------29.96-------
2024-02-24 10:48 am-------29.96-------
2024-02-24 10:42 am-------29.96-------
2024-02-24 10:36 am-------29.96-------
2024-02-24 10:30 am-------29.96- 9.0-----
2024-02-24 10:24 am-------29.96- 8.8-----
2024-02-24 10:18 am-------29.96- 8.8-----
2024-02-24 10:12 am-------29.96- 8.2-----
2024-02-24 10:06 am-------29.96- 8.4-----
2024-02-24 10:00 am-------29.95+0.04 8.1-----
2024-02-24 09:54 am-------29.95- 7.9-----
2024-02-24 09:48 am-------29.95-------
2024-02-24 09:42 am-------29.95-------
2024-02-24 09:36 am-------29.96-------
2024-02-24 09:30 am-------29.95- 7.3-----
2024-02-24 09:24 am-------29.95- 7.2-----
2024-02-24 09:18 am-------29.96- 7.0-----
2024-02-24 09:12 am-------29.96- 7.0-----
2024-02-24 09:06 am-------29.96- 6.8-----
2024-02-24 09:00 am-------29.96+0.07 7.0-----
2024-02-24 08:54 am-------29.95- 6.6-----
2024-02-24 08:48 am-------29.95- 6.1-----
2024-02-24 08:42 am-------29.95- 5.9-----
2024-02-24 08:36 am-------29.95- 6.3-----
2024-02-24 08:30 am-------29.95-------
2024-02-24 08:24 am-------29.95-------
2024-02-24 08:18 am-------29.95-------
2024-02-24 08:12 am-------29.95-------
2024-02-24 08:06 am-------29.94-------
2024-02-24 08:00 am--------- 5.4-----
2024-02-24 07:54 am--------- 5.7-----
2024-02-24 07:48 am-------29.94- 5.7-----
2024-02-24 07:42 am-------29.94- 5.5-----
2024-02-24 07:36 am-------29.93- 5.5-----
2024-02-24 07:30 am-------29.93-------
2024-02-24 07:24 am-------29.93-------
2024-02-24 07:18 am-------29.92-------
2024-02-24 07:12 am-------29.92-------
2024-02-24 07:06 am-------29.92-------
2024-02-24 07:00 am-------29.91+0.09 5.5-----
2024-02-24 06:54 am-------29.91- 5.9-----
2024-02-24 06:48 am-------29.91-------
2024-02-24 06:42 am-------29.90-------
2024-02-24 06:36 am-------29.90-------
2024-02-24 06:30 am-------29.90- 6.6-----
2024-02-24 06:24 am-------29.89- 6.8-----
2024-02-24 06:18 am-------29.89- 6.8-----
2024-02-24 06:12 am-------29.89- 6.6-----
2024-02-24 06:06 am-------29.89- 7.0-----
2024-02-24 06:00 am-------29.89+0.09------
2024-02-24 05:54 am-------29.88-------
2024-02-24 05:48 am-------29.88- 7.0-----
2024-02-24 05:42 am-------29.88- 7.9-----
2024-02-24 05:36 am-------29.88- 7.3-----
2024-02-24 05:30 am-------29.87-------
2024-02-24 05:24 am-------29.87-------
2024-02-24 05:18 am-------29.86- 7.5-----
2024-02-24 05:12 am-------29.86- 7.7-----
2024-02-24 05:06 am-------29.86- 7.5-----
2024-02-24 05:00 am-------29.85+0.08------
2024-02-24 04:54 am-------29.85-------
2024-02-24 04:48 am-------29.85-------
2024-02-24 04:42 am-------29.85-------
2024-02-24 04:36 am-------29.84-------
2024-02-24 04:30 am-------29.84-------
2024-02-24 04:24 am-------29.83-------
2024-02-24 04:18 am-------29.83- 9.5-----
2024-02-24 04:12 am-------29.83- 9.5-----
2024-02-24 04:06 am-------29.83- 9.1-----
2024-02-24 04:00 am-------29.83+0.06 9.7-----
2024-02-24 03:54 am-------29.82- 9.7-----
2024-02-24 03:48 am-------29.81- 9.9-----
2024-02-24 03:42 am-------29.81- 9.9-----
2024-02-24 03:36 am-------29.81- 10.8-----
2024-02-24 03:30 am-------29.81-------
2024-02-24 03:24 am-------29.81-------
2024-02-24 03:18 am-------29.80-------
2024-02-24 03:12 am-------29.80-------
2024-02-24 03:06 am-------29.80-------
2024-02-24 03:00 am-------29.80+0.06------
2024-02-24 02:54 am-------29.80-------
2024-02-24 02:48 am-------29.79-------
2024-02-24 02:42 am-------29.79-------
2024-02-24 02:36 am-------29.79-------
2024-02-24 02:30 am-------29.79-------
2024-02-24 02:24 am-------29.78-------
2024-02-24 02:18 am-------29.78- 12.7-----
2024-02-24 02:12 am-------29.78- 12.4-----
2024-02-24 02:06 am-------29.78- 12.6-----
2024-02-24 02:00 am-------29.78+0.06 12.7-----
2024-02-24 01:54 am-------29.78- 13.1-----
2024-02-24 01:48 am-------29.77-------
2024-02-24 01:42 am-------29.77-------
2024-02-24 01:36 am-------29.77-------
2024-02-24 01:30 am-------29.77- 14.5-----
2024-02-24 01:24 am-------29.77- 14.0-----
2024-02-24 01:18 am-------29.76-------
2024-02-24 01:12 am-------29.76-------
2024-02-24 01:06 am-------29.76-------
2024-02-24 01:00 am-------29.76+0.06 14.9-----
2024-02-24 12:54 am-------29.76- 14.4-----
2024-02-24 12:48 am-------29.76-------
2024-02-24 12:42 am-------29.75-------
2024-02-24 12:36 am-------29.75-------
2024-02-24 12:30 am-------29.75- 15.3-----
2024-02-24 12:24 am-------29.75- 15.4-----
2024-02-24 12:18 am-------29.75- 15.8-----
2024-02-24 12:12 am-------29.75- 16.2-----
2024-02-24 12:06 am-------29.75- 16.5-----
2024-02-24 12:00 am-------29.74+0.06------
2024-02-23 11:54 pm-------29.74-------
2024-02-23 11:48 pm-------29.73- 16.9-----
2024-02-23 11:42 pm-------29.73- 17.1-----
2024-02-23 11:36 pm-------29.73- 17.2-----
2024-02-23 11:30 pm-------29.73- 17.4-----
2024-02-23 11:24 pm-------29.73- 18.0-----
2024-02-23 11:18 pm-------29.73- 17.8-----
2024-02-23 11:12 pm-------29.72- 17.8-----
2024-02-23 11:06 pm-------29.72- 17.8-----
2024-02-23 11:00 pm-------29.72+0.09 18.1-----
2024-02-23 10:54 pm-------29.72- 18.7-----